Location: ????????
(60.4333°N, 46.4710°E)
Time: 04:15:05
(UTC+00:00)

Cosmos 1697 Rocket - Pass Details

Date: 25 November 2020
Orbit: 831 x 845 km, 71.0° (Epoch: 19 January)

Event Time Altitude Azimuth Distance (km) Brightness Sun altitude
Rises 13:24:46 0° 268° (W) 3,394 7.2 -9.2°
Reaches altitude 10° 13:27:27 10° 279° (W) 2,463 6.0 -9.5°
Maximum altitude 13:32:31 33° 342° (NNW) 1,398 3.8 -10.0°
Enters shadow 13:37:18 11° 44° (NE) 2,372 4.5 -10.6°
